| time (UTC) | temp F | wind direction | speed MPH | gust MPH | rain 1hr in | rain 24hr in | rain mn in | humidity % | barometer mb |
| 20260901010007 | 80 | 33 | 0.0 | 0.0 | 0.00 | 0.00 | 0.00 | 76 | 1008.5 |
| 20260901004504 | 81 | 33 | 0.0 | 0.0 | 0.00 | 0.00 | 0.00 | 75 | 1008.2 |
| 20260901003004 | 82 | 33 | 0.0 | 0.0 | 0.00 | 0.00 | 0.00 | 75 | 1007.8 |
| 20260901001504 | 83 | 33 | 0.0 | 0.0 | 0.00 | 0.00 | 0.00 | 74 | 1007.9 |
| 20260901000003 | 84 | 51 | 0.0 | 0.0 | 0.00 | 0.00 | 0.00 | 74 | 1007.8 |
| 20260831234502 | 84 | 216 | 0.0 | 0.0 | 0.00 | 0.00 | 0.00 | 74 | 1007.8 |
| 20260831233007 | 84 | 229 | 0.0 | 0.0 | 0.00 | 0.00 | 0.00 | 74 | 1007.8 |
| 20260831231502 | 84 | 91 | 0.0 | 0.0 | 0.00 | 0.00 | 0.00 | 73 | 1007.8 |
| 20260831230002 | 84 | 91 | 0.0 | 0.0 | 0.00 | 0.00 | 0.00 | 73 | 1007.7 |
| 20260831224600 | 84 | 82 | 0.0 | 0.0 | 0.00 | 0.00 | 0.00 | 73 | 1007.6 |
| 20260831223100 | 85 | 82 | 0.0 | 0.0 | 0.00 | 0.00 | 0.00 | 72 | 1007.7 |
| 20260831221600 | 85 | 166 | 0.0 | 0.0 | 0.00 | 0.00 | 0.00 | 71 | 1007.3 |
| 20260831220059 | 85 | 78 | 1.0 | 0.0 | 0.00 | 0.00 | 0.00 | 70 | 1007.4 |
| 20260831214620 | 85 | 81 | 0.0 | 0.0 | 0.00 | 0.00 | 0.00 | 72 | 1007.4 |
| 20260831213100 | 85 | 81 | 1.0 | 0.0 | 0.00 | 0.00 | 0.00 | 70 | 1007.4 |
| 20260831211558 | 86 | 239 | 0.0 | 0.0 | 0.00 | 0.00 | 0.00 | 69 | 1007.3 |
| 20260831210058 | 87 | 58 | 1.0 | 0.0 | 0.00 | 0.00 | 0.00 | 68 | 1007.2 |
| 20260831204556 | 87 | 72 | 2.0 | 0.0 | 0.00 | 0.00 | 0.00 | 68 | 1007.5 |
| 20260831203056 | 87 | 66 | 1.0 | 0.0 | 0.00 | 0.00 | 0.00 | 67 | 1007.7 |
| 20260831201553 | 86 | 76 | 0.0 | 0.0 | 0.00 | 0.00 | 0.00 | 69 | 1007.8 |
| 20260831200056 | 85 | 59 | 0.0 | 0.0 | 0.00 | 0.00 | 0.00 | 69 | 1007.8 |
| 20260831194619 | 86 | 55 | 1.0 | 0.0 | 0.00 | 0.00 | 0.00 | 69 | 1007.7 |
| 20260831193051 | 85 | 55 | 0.0 | 0.0 | 0.00 | 0.00 | 0.00 | 70 | 1007.7 |
| 20260831191551 | 85 | 20 | 0.0 | 0.0 | 0.00 | 0.00 | 0.00 | 72 | 1007.6 |
| 20260831190055 | 85 | 20 | 0.0 | 0.0 | 0.00 | 0.00 | 0.00 | 72 | 1007.1 |
| 20260831184549 | 85 | 58 | 1.0 | 0.0 | 0.00 | 0.00 | 0.00 | 69 | 1007.3 |
| 20260831183048 | 86 | 54 | 1.0 | 0.0 | 0.00 | 0.00 | 0.00 | 67 | 1007.6 |
| 20260831181547 | 86 | 50 | 1.0 | 0.0 | 0.00 | 0.00 | 0.00 | 68 | 1007.8 |
| 20260831180045 | 86 | 55 | 1.0 | 0.0 | 0.00 | 0.00 | 0.00 | 67 | 1007.9 |
| 20260831174542 | 85 | 53 | 1.0 | 0.0 | 0.00 | 0.00 | 0.00 | 68 | 1007.9 |
| 20260831173040 | 84 | 54 | 1.0 | 0.0 | 0.00 | 0.00 | 0.00 | 68 | 1008.0 |
| 20260831171540 | 84 | 100 | 2.0 | 0.0 | 0.00 | 0.00 | 0.00 | 69 | 1008.2 |
| 20260831170039 | 84 | 74 | 1.0 | 0.0 | 0.00 | 0.00 | 0.00 | 68 | 1008.2 |
| 20260831164540 | 83 | 87 | 2.0 | 0.0 | 0.00 | 0.00 | 0.00 | 69 | 1008.1 |
| 20260831163033 | 82 | 54 | 1.0 | 0.0 | 0.00 | 0.00 | 0.00 | 71 | 1008.1 |
| 20260831161534 | 82 | 53 | 2.0 | 0.0 | 0.00 | 0.00 | 0.00 | 69 | 1008.0 |
| 20260831160035 | 81 | 78 | 1.0 | 0.0 | 0.00 | 0.00 | 0.00 | 70 | 1008.0 |
| 20260831154528 | 80 | 92 | 2.0 | 0.0 | 0.00 | 0.00 | 0.00 | 73 | 1008.0 |
| 20260831153022 | 79 | 256 | 0.0 | 0.0 | 0.00 | 0.00 | 0.00 | 75 | 1007.8 |
| 20260831151521 | 78 | 82 | 0.0 | 0.0 | 0.00 | 0.00 | 0.00 | 76 | 1007.8 |
| 20260831150019 | 77 | 76 | 0.0 | 0.0 | 0.00 | 0.00 | 0.00 | 75 | 1007.7 |
| 20260831144516 | 77 | 341 | 0.0 | 0.0 | 0.00 | 0.00 | 0.00 | 76 | 1007.6 |
| 20260831143018 | 77 | 41 | 0.0 | 0.0 | 0.00 | 0.00 | 0.00 | 75 | 1007.7 |
| 20260831141515 | 77 | 213 | 0.0 | 0.0 | 0.00 | 0.00 | 0.00 | 75 | 1007.7 |
| 20260831140016 | 76 | 52 | 1.0 | 0.0 | 0.00 | 0.00 | 0.00 | 76 | 1007.6 |
| 20260831134510 | 75 | 330 | 0.0 | 0.0 | 0.00 | 0.00 | 0.00 | 77 | 1007.6 |
| 20260831133012 | 74 | 74 | 1.0 | 0.0 | 0.00 | 0.00 | 0.00 | 77 | 1007.4 |
| 20260831131505 | 73 | 18 | 0.0 | 0.0 | 0.00 | 0.00 | 0.00 | 78 | 1007.2 |
| 20260831130002 | 72 | 8 | 0.0 | 0.0 | 0.00 | 0.00 | 0.00 | 77 | 1007.3 |
| 20260831124557 | 71 | 223 | 0.0 | 0.0 | 0.00 | 0.00 | 0.00 | 75 | 1007.4 |
| 20260831123054 | 70 | 223 | 0.0 | 0.0 | 0.00 | 0.00 | 0.00 | 73 | 1007.3 |
| 20260831121553 | 69 | 223 | 0.0 | 0.0 | 0.00 | 0.00 | 0.00 | 72 | 1007.2 |
| 20260831120053 | 69 | 223 | 0.0 | 0.0 | 0.00 | 0.00 | 0.00 | 71 | 1007.3 |
| 20260831114551 | 68 | 231 | 0.0 | 0.0 | 0.00 | 0.00 | 0.00 | 71 | 1007.0 |
| 20260831113052 | 69 | 231 | 0.0 | 0.0 | 0.00 | 0.00 | 0.00 | 71 | 1007.1 |
| 20260831111550 | 69 | 231 | 0.0 | 0.0 | 0.00 | 0.00 | 0.00 | 71 | 1007.1 |
| 20260831110050 | 69 | 231 | 0.0 | 0.0 | 0.00 | 0.00 | 0.00 | 71 | 1007.2 |
| 20260831104548 | 69 | 231 | 0.0 | 0.0 | 0.00 | 0.00 | 0.00 | 71 | 1007.1 |
| 20260831103047 | 69 | 231 | 0.0 | 0.0 | 0.00 | 0.00 | 0.00 | 71 | 1007.2 |
| 20260831101547 | 69 | 231 | 0.0 | 0.0 | 0.00 | 0.00 | 0.00 | 71 | 1007.2 |
| 20260831100046 | 69 | 231 | 0.0 | 0.0 | 0.00 | 0.00 | 0.00 | 71 | 1007.3 |
| 20260831094544 | 69 | 231 | 0.0 | 0.0 | 0.00 | 0.00 | 0.00 | 71 | 1007.5 |
| 20260831093044 | 69 | 231 | 0.0 | 0.0 | 0.00 | 0.00 | 0.00 | 71 | 1007.7 |
| 20260831091542 | 70 | 231 | 0.0 | 0.0 | 0.00 | 0.00 | 0.00 | 71 | 1007.8 |
| 20260831090040 | 70 | 231 | 0.0 | 0.0 | 0.00 | 0.00 | 0.00 | 71 | 1008.1 |
| 20260831084538 | 70 | 231 | 0.0 | 0.0 | 0.00 | 0.00 | 0.00 | 71 | 1008.1 |
| 20260831083042 | 69 | 231 | 0.0 | 0.0 | 0.00 | 0.00 | 0.00 | 71 | 1008.0 |
| 20260831081538 | 69 | 231 | 0.0 | 0.0 | 0.00 | 0.00 | 0.00 | 71 | 1008.1 |
| 20260831080037 | 69 | 231 | 0.0 | 0.0 | 0.00 | 0.00 | 0.00 | 71 | 1008.2 |
| 20260831074536 | 69 | 231 | 0.0 | 0.0 | 0.00 | 0.00 | 0.00 | 71 | 1008.2 |
| 20260831073036 | 69 | 231 | 0.0 | 0.0 | 0.00 | 0.00 | 0.00 | 71 | 1008.2 |
| 20260831071534 | 69 | 231 | 0.0 | 0.0 | 0.00 | 0.00 | 0.00 | 71 | 1008.5 |
| 20260831070032 | 69 | 231 | 0.0 | 0.0 | 0.00 | 0.00 | 0.00 | 71 | 1008.6 |
| 20260831064531 | 69 | 231 | 0.0 | 0.0 | 0.00 | 0.00 | 0.00 | 71 | 1008.8 |
| 20260831063028 | 69 | 231 | 0.0 | 0.0 | 0.00 | 0.00 | 0.00 | 71 | 1009.3 |
| 20260831061528 | 69 | 231 | 0.0 | 0.0 | 0.00 | 0.00 | 0.00 | 71 | 1009.2 |
| 20260831060026 | 69 | 231 | 0.0 | 0.0 | 0.00 | 0.00 | 0.00 | 71 | 1009.5 |
| 20260831054529 | 69 | 231 | 0.0 | 0.0 | 0.00 | 0.00 | 0.00 | 71 | 1009.8 |
| 20260831053025 | 69 | 231 | 0.0 | 0.0 | 0.00 | 0.00 | 0.00 | 71 | 1009.9 |
| 20260831051528 | 69 | 231 | 0.0 | 0.0 | 0.00 | 0.00 | 0.00 | 71 | 1009.9 |
| 20260831050025 | 69 | 231 | 0.0 | 0.0 | 0.00 | 0.00 | 0.00 | 71 | 1009.9 |
| 20260831044526 | 70 | 231 | 0.0 | 0.0 | 0.00 | 0.00 | 0.00 | 71 | 1009.8 |
| 20260831043021 | 70 | 231 | 0.0 | 0.0 | 0.00 | 0.00 | 0.00 | 71 | 1009.8 |
| 20260831041550 | 70 | 231 | 0.0 | 0.0 | 0.00 | 0.00 | 0.00 | 71 | 1009.6 |
| 20260831040018 | 70 | 231 | 0.0 | 0.0 | 0.00 | 0.00 | 0.00 | 71 | 1009.4 |
| 20260831034515 | 70 | 231 | 0.0 | 0.0 | 0.00 | 0.00 | 0.04 | 71 | 1009.6 |
| 20260831033020 | 71 | 231 | 0.0 | 0.0 | 0.00 | 0.00 | 0.03 | 71 | 1009.4 |
| 20260831031513 | 71 | 231 | 0.0 | 0.0 | 0.00 | 0.00 | 0.03 | 71 | 1009.6 |
| 20260831030013 | 71 | 231 | 0.0 | 0.0 | 0.00 | 0.00 | 0.03 | 71 | 1009.7 |
| 20260831024513 | 72 | 231 | 0.0 | 0.0 | 0.00 | 0.00 | 0.02 | 71 | 1009.6 |
| 20260831023013 | 72 | 231 | 0.0 | 0.0 | 0.00 | 0.00 | 0.02 | 71 | 1009.7 |
| 20260831021516 | 72 | 232 | 0.0 | 0.0 | 0.00 | 0.00 | 0.01 | 72 | 1009.2 |
| 20260831020013 | 72 | 232 | 0.0 | 0.0 | 0.00 | 0.00 | 0.00 | 72 | 1009.4 |
| 20260831014519 | 72 | 228 | 0.0 | 0.0 | 0.00 | 0.00 | 0.00 | 73 | 1009.7 |
| 20260831013010 | 73 | 228 | 0.0 | 0.0 | 0.00 | 0.00 | 0.00 | 73 | 1009.5 |
| 20260831011519 | 73 | 228 | 0.0 | 0.0 | 0.00 | 0.00 | 0.00 | 74 | 1009.2 |